Погода Советская Гавань

Погода Советская Гавань : погода сейчас, прогноз погоды и архив. Всё, что Вы хотите узнать о погоде Советская Гавань!

Поиск расширенной информации на нашем сайте:

Другие новости

Новости СМИ2

Главная страница сайта

Новости сайта

03.07.2017

Напоминаем, что на нашем специализированном сайте Метеоцентр.Азия вы можете получить высокодетализированные автоматические прогнозы погоды по пунктам России, СНГ и мира в авиационном формате (включающие направление и скорость ветра, видимость, явления погоды, количество и форму облачности, нижнюю и верхнюю границу облачности).

Рекомендуем: Ssangyong автогермес корейские автомобили.

Погода Советская Гавань - сегодня

Время (UTC), дата Ветер
(°,м/с) 
Видим.   Явления Облачность Т
(°С)
Тd
(°С)
f(%) Тe
(°С)
Pmin
(гПа)
dP
(гПа)
Po
(мм)
O2
(г/м3)
Тmin Tmax R s Состояние
почвы
03 23.07.17 180 (Ю) 20000 м    3/1 600 м средняя 
[Cu hum|Ac trans]
+23.2 +13 53 +29  1004.7  -2.5  752  277           
06 23.07.17 180 (Ю) 6-12{12}  20000 м    10/3 600 м средняя, верхняя 
[Cu hum|Ac trans|Cc]
+23.5 +11.9 48 +27  1002.6  -2.1  750  276           
09 23.07.17 050 (СВ) 2{12}  20000 м    10/8 600 м кучево-дожд., средняя, верхняя 
[Cb cap|Ac trans|Ci fib]
+14.1 +11.7 85 +18  1003  0.3  750  285    +23.9       
12 23.07.17 020 (С) 6000 м  дымка  10/10 300 м 
[St]
+11.3 +10.5 95 +14  1003  750  288           
15 23.07.17 тихо ()   3900 м  дымка  10/8 300 м средняя 
[St|Ac As]
+11.3 +10.8 97 +14  1002.2  -0.8  750  288           
18 23.07.17 тихо ()   11000 м  ливневой дождь  10/10 300 м кучево-дожд. 
[Cb cap]
+12 +11.3 95 +15  1001.1  -1.1  749  287           
21 23.07.17 тихо ()   20000 м  слаб. ливневой дождь  10/8 600 м кучево-дожд., средняя, верхняя 
[Cb cap|Ac trans|Ci fib]
+12.9 +12.4 97 +17  999.6  -1.5  748  285  +11.2      влажная 
00 24.07.17 тихо ()   20000 м  слаб. ливневой дождь  10/10 600 м кучево-дожд. 
[Cb cap]
+14.5 +13.6 94 +21  998.8  -0.8  747  283           
03 24.07.17 200 (Ю) 20000 м    10/5 600 м кучево-дожд., средняя, верхняя 
[Cb cap|Ac trans|Ci fib]
+21.9 +13.8 60 +29  996.9  -1.9  746  275           
06 24.07.17 180 (Ю) 6-10{10}  20000 м  гроза без осадков  10/3 600 м кучево-дожд., средняя, верхняя 
[Cb calv|Ac trans|Cc]
+21.3 +12.3 56 +26  995.5  -1.4  745  276           
09 24.07.17 090 (В) 20000 м  в посл. час ливневой дождь{гроза}  10/6 600 м кучево-дожд., средняя, верхняя 
[Cb calv|Ac trans|Cc]
+14.3 +12.1 87 +19  996.9  1.4  746  283    +23.4  0.4     
12 24.07.17 360 (С) 4000 м  дымка{гроза, ливн. осадки}  10/6 300 м кучево-дожд., средняя, верхняя 
[Cb calv|Ac trans|Cc]
+12.2 +11.5 95 +16  996.7  -0.3  746  285           
15 24.07.17 090 (В) 4000 м  дымка  10/8 300 м кучево-дожд., средняя 
[Cb cap|Ac As]
+11.7 +11.2 97 +15  996.8  0.1  746  286           
18 24.07.17 тихо ()   0300 м  туман  ?/?  
+12 +11.6 97 +15  996.5  -0.3  746  286           
21 24.07.17 тихо ()   0500 м  туман  ?/?  
+12.3 +11.9 97 +16  996.5  746  285  +11.1        влажная 
00 25.07.17 тихо ()   20000 м  в посл. час ливневой дождь{туман}  10/3 300 м средняя, верхняя 
[St|Ac trans|Cc]
+16.3 +13.8 85 +23  996.4  746  281           
03 25.07.17 340 (С) 20000 м  слаб. ливневой дождь  10/8 600 м кучево-дожд., средняя, верхняя 
[Cb cap|Ac lent|Ci fib]
+13 +11.5 91 +16  995.8  -0.7  745  284           
06 25.07.17 020 (С) 0500 м  туман{ливн. осадки}  10/5 200 м кучево-дожд., средняя, верхняя 
[Cb cap|Ac trans|Ci fib]
+12.7 +11.1 90 +16  996.5  0.7  746  285           
09 25.07.17 200 (Ю) 20000 м  ливневой дождь, в посл. час гроза  10/10 300 м 
[St]
+14.9 +13.4 91 +22  998.3  1.8  747  283    +18.9     
12 25.07.17 230 (ЮЗ) 15000 м  слаб. ливневой дождь{гроза}  10/10 300 м кучево-дожд. 
[Cb cap]
+14.9 +14 94 +22  998.5  0.2  747  283           
15 25.07.17 230 (ЮЗ) 26000 м  {ливн. осадки}  10/0 средняя, верхняя 
[Ac trans|Ci fib]
+15.6 +12.8 83 +21  999.5  748  282           
18 25.07.17 тихо ()   4600 м  дымка{ливн. осадки}  10/8 300 м средняя 
[St|As op]
+13.1 +12.4 96 +18  1000.4  0.9  748  285           
21 25.07.17 тихо ()   4000 м  дымка  10/4 300 м средняя, верхняя 
[St|Ac trans|Ci fib]
+13.8 +13.2 96 +20  1002.7  2.3  750  285  +12.3      влажная 
00 26.07.17 090 (В) 10 км    10/10 300 м 
[St]
+15.2 +13 87 +21  1004.4  1.7  751  284           
03 26.07.17 090 (В) 20000 м    10/5 600 м средняя, верхняя 
[Sc|Ac trans|Cc]
+17.9 +13.5 75 +25  1004.9  0.5  752  282           
Время (UTC), дата Ветер
(°,м/с) 
Видим.   Явления Облачность Т
(°С)
Тd
(°С)
f(%) Тe
(°С)
Pmin
(гПа)
dP
(гПа)
Po
(мм)
O2
(г/м3)
Тmin Tmax R s Состояние
почвы

Для получения пояснительной информации подведите курсор к названию столбца.

ПОГОДА Советская Гавань - архив

Всё, что Вы хотите узнать о погоде Советская Гавань - удобно и подробно!

Выберите нужную дату (начиная с 1 января 2015* года) и нажмите кнопку "Найти".
Будут отображены архивные сводки погоды по пункту Советская Гавань, начиная с указанной даты.


Отображать данные в формате CSV (для использования в таблицах Excel)


Внимание! Наш архив погоды предназначен исключительно для личного некоммерческого использования в познавательных целях. Если Вам необходимы официальные справки о состоянии погоды (для производственных, юридических, коммерческих и т.п. целей), обращайтесь в органы Росгидромета.

*Примечание: данная дата относится к архиву по метеостанциям СССР (Россия, СНГ, Балтия).
Архив по метеостанциям Зарубежной Европы и Азии (кроме Китая) хранится 10 дней, по другим регионам земного шара (Китай, Африка, Америка, Австралия, Океания) - 1 день.

Советская Гавань - район местоположения метеостанции


Название, широта, долгота, высота метеостанции:
Советская Гавань 49°ш. 140.3°д. 22 м над ур. моря [Российская Федерация]

Дополнительная информация

В oтличие oт бoльшинства пoгoдных сайтoв мы публикуем пoдрoбную метеoинфoрмацию в детальнoм прoфессиoнальнoм фoрмате.

Характеристики температуры и влажнoсти вoздуха измеряются на высoте 2 м в тени вдали oт зданий и деревьев.
Скoрoсть ветра измеряется на высoте 10 м (на урoвне рoста челoвека скoрoсть ветра ниже в 1.5-2 раза). Если метеoстанция нахoдится в гoрoде или в лесу, тo скoрoсть ветра занижена на 2-4 м/с пo сравнению с oткрытым местoм. Скoрoсть ветра над акватoриями крупных рек и oзёр, а также на вершинах хoлмoв на 2-5 м/с выше, чем в oбычных услoвиях.
Атмoсфернoе давление в разных тoчках местнoсти мoжет значительнo oтличаться oт давления на метеoстанции, в зависимoсти oт услoвий рельефа (при пoдъёме на 10 м давление пoнижается примернo на 1 мм рт.ст.).